When you browse on this site, cookies collect data to enhance your experience and personalize the content and advertising you see.
Visit our Privacy Policy to learn more. By continuing to use the site, you agree to this use of cookies and data.
  • In Schweiz
  • Länderverzeichnis
  • Für 7 Tage
  • Wassertemperatur
  • Satellitenkarten
  • Wetterkarte
  • Widgets
  • user-avatar
    Anmelden

    Stündliche Wetter Lyskovo

    Heute, 23 Januar, Mittwoch

    Zeit Temperatur Niederschläge Wind Luftdruck Luftfeuchtigkeit
    00:00 -7°C° 0 mm 2 m/S 745 mmHg 93%
    01:00 -8°C° 0 mm 2 m/S 744 mmHg 93%
    02:00 -9°C° 0 mm 2 m/S 744 mmHg 94%
    03:00 -10°C° 0 mm 2 m/S 744 mmHg 95%
    04:00 -10°C° 0 mm 2 m/S 743 mmHg 95%
    05:00 -13°C° 0 mm 3 m/S 743 mmHg 95%
    06:00 -13°C° 0 mm 3 m/S 743 mmHg 95%
    07:00 -13°C° 0 mm 3 m/S 743 mmHg 95%
    08:00 -14°C° 0 mm 3 m/S 743 mmHg 96%
    09:00 -13°C° 0 mm 3 m/S 743 mmHg 95%
    10:00 -12°C° 0 mm 3 m/S 742 mmHg 93%
    11:00 -12°C° 0 mm 3 m/S 742 mmHg 92%
    12:00 -10°C° 0 mm 3 m/S 742 mmHg 90%
    13:00 -10°C° 0 mm 3 m/S 742 mmHg 89%
    14:00 -9°C° 0 mm 3 m/S 742 mmHg 88%
    15:00 -9°C° 0 mm 3 m/S 742 mmHg 88%
    16:00 -10°C° 0 mm 3 m/S 742 mmHg 89%
    17:00 -10°C° 0 mm 3 m/S 742 mmHg 89%
    18:00 -10°C° 0 mm 3 m/S 742 mmHg 90%
    19:00 -10°C° 0 mm 3 m/S 742 mmHg 91%
    20:00 -10°C° 0 mm 3 m/S 742 mmHg 92%
    21:00 -12°C° 0 mm 3 m/S 742 mmHg 93%
    22:00 -12°C° 0 mm 3 m/S 742 mmHg 93%
    23:00 -12°C° 0 mm 3 m/S 742 mmHg 94%

    Morgen, 24 Januar, Donnerstag

    Zeit Temperatur Niederschläge Wind Luftdruck Luftfeuchtigkeit
    00:00 -13°C° 0 mm 3 m/S 742 mmHg 94%
    01:00 -13°C° 0 mm 3 m/S 743 mmHg 95%
    02:00 -12°C° 0 mm 2 m/S 743 mmHg 95%
    03:00 -14°C° 0 mm 3 m/S 743 mmHg 96%
    04:00 -14°C° 0 mm 3 m/S 743 mmHg 96%
    05:00 -14°C° 0 mm 3 m/S 743 mmHg 96%
    06:00 -14°C° 0 mm 3 m/S 743 mmHg 96%
    07:00 -14°C° 0 mm 3 m/S 743 mmHg 96%
    08:00 -14°C° 0 mm 3 m/S 744 mmHg 95%
    09:00 -13°C° 0 mm 3 m/S 744 mmHg 94%
    10:00 -13°C° 0 mm 3 m/S 744 mmHg 93%
    11:00 -12°C° 0 mm 3 m/S 745 mmHg 92%
    12:00 -12°C° 0 mm 3 m/S 745 mmHg 91%
    13:00 -10°C° 0 mm 3 m/S 745 mmHg 91%
    14:00 -10°C° 0 mm 3 m/S 745 mmHg 90%
    15:00 -10°C° 0 mm 3 m/S 745 mmHg 90%
    16:00 -10°C° 0 mm 3 m/S 745 mmHg 90%
    17:00 -12°C° 0 mm 4 m/S 745 mmHg 91%
    18:00 -12°C° 0 mm 4 m/S 745 mmHg 91%
    19:00 -12°C° 0 mm 4 m/S 746 mmHg 92%
    20:00 -14°C° 0 mm 4 m/S 746 mmHg 92%
    21:00 -14°C° 0 mm 4 m/S 746 mmHg 92%
    22:00 -14°C° 0 mm 4 m/S 746 mmHg 93%
    23:00 -13°C° 0 mm 3 m/S 746 mmHg 93%

    übermorgen, 25 Januar, Freitag

    Zeit Temperatur Niederschläge Wind Luftdruck Luftfeuchtigkeit
    00:00 -14°C° 0 mm 4 m/S 746 mmHg 93%
    01:00 -14°C° 0 mm 4 m/S 746 mmHg 92%
    02:00 -14°C° 0 mm 4 m/S 746 mmHg 92%
    03:00 -14°C° 0 mm 4 m/S 746 mmHg 92%
    04:00 -15°C° 0 mm 4 m/S 746 mmHg 92%
    05:00 -15°C° 0 mm 4 m/S 745 mmHg 92%
    06:00 -15°C° 0 mm 4 m/S 745 mmHg 92%
    07:00 -15°C° 0 mm 5 m/S 745 mmHg 92%
    08:00 -15°C° 0 mm 5 m/S 745 mmHg 92%
    09:00 -15°C° 0 mm 5 m/S 745 mmHg 90%
    10:00 -15°C° 0 mm 5 m/S 745 mmHg 88%
    11:00 -14°C° 0 mm 5 m/S 745 mmHg 87%
    12:00 -14°C° 0.1 mm 5 m/S 745 mmHg 88%
    13:00 -13°C° 0.1 mm 5 m/S 745 mmHg 89%
    14:00 -13°C° 0.1 mm 5 m/S 745 mmHg 90%
    15:00 -12°C° 0.4 mm 4 m/S 745 mmHg 91%
    16:00 -12°C° 0.4 mm 4 m/S 745 mmHg 92%
    17:00 -12°C° 0.4 mm 4 m/S 744 mmHg 94%
    18:00 -12°C° 0.5 mm 4 m/S 744 mmHg 94%
    19:00 -12°C° 0.5 mm 4 m/S 744 mmHg 94%
    20:00 -12°C° 0.5 mm 4 m/S 744 mmHg 94%
    21:00 -12°C° 0.5 mm 3 m/S 744 mmHg 95%
    22:00 -10°C° 0.5 mm 3 m/S 744 mmHg 95%
    23:00 -9°C° 0.5 mm 2 m/S 744 mmHg 95%

    26 Januar, Samstag

    Zeit Temperatur Niederschläge Wind Luftdruck Luftfeuchtigkeit
    00:00 -9°C° 0.2 mm 2 m/S 744 mmHg 95%
    01:00 -8°C° 0.2 mm 1 m/S 744 mmHg 95%
    02:00 -8°C° 0.2 mm 1 m/S 743 mmHg 96%
    03:00 -8°C° 0.1 mm 1 m/S 743 mmHg 96%
    04:00 -8°C° 0.1 mm 0 m/S 743 mmHg 96%
    05:00 -8°C° 0.1 mm 0 m/S 742 mmHg 96%
    06:00 -8°C° 0.1 mm 1 m/S 742 mmHg 96%
    07:00 -8°C° 0.1 mm 1 m/S 742 mmHg 96%
    08:00 -8°C° 0.1 mm 1 m/S 742 mmHg 96%
    09:00 -7°C° 0 mm 1 m/S 742 mmHg 94%
    10:00 -8°C° 0 mm 2 m/S 742 mmHg 93%
    11:00 -8°C° 0 mm 2 m/S 742 mmHg 92%
    12:00 -8°C° 0 mm 2 m/S 742 mmHg 91%
    13:00 -7°C° 0 mm 2 m/S 742 mmHg 90%
    14:00 -8°C° 0 mm 3 m/S 742 mmHg 89%
    15:00 -7°C° 0 mm 2 m/S 742 mmHg 90%
    16:00 -7°C° 0 mm 2 m/S 742 mmHg 91%
    17:00 -8°C° 0 mm 2 m/S 742 mmHg 93%
    18:00 -8°C° 0 mm 2 m/S 741 mmHg 93%
    19:00 -8°C° 0 mm 1 m/S 741 mmHg 94%
    20:00 -9°C° 0 mm 1 m/S 741 mmHg 95%
    21:00 -10°C° 0 mm 2 m/S 741 mmHg 95%
    22:00 -10°C° 0 mm 2 m/S 741 mmHg 95%
    23:00 -10°C° 0 mm 2 m/S 741 mmHg 96%

    27 Januar, Sonntag

    Zeit Temperatur Niederschläge Wind Luftdruck Luftfeuchtigkeit
    00:00 -10°C° 0 mm 2 m/S 741 mmHg 96%
    01:00 -10°C° 0 mm 2 m/S 741 mmHg 96%
    02:00 -10°C° 0 mm 2 m/S 740 mmHg 96%
    03:00 -10°C° 0 mm 2 m/S 740 mmHg 95%
    04:00 -10°C° 0 mm 2 m/S 740 mmHg 95%
    05:00 -10°C° 0 mm 2 m/S 740 mmHg 95%
    06:00 -12°C° 0 mm 3 m/S 740 mmHg 94%
    07:00 -10°C° 0 mm 3 m/S 740 mmHg 94%
    08:00 -10°C° 0 mm 3 m/S 740 mmHg 93%
    09:00 -10°C° 0 mm 3 m/S 740 mmHg 92%
    10:00 -9°C° 0 mm 3 m/S 740 mmHg 92%
    11:00 -10°C° 0 mm 4 m/S 740 mmHg 91%
    12:00 -9°C° 0 mm 4 m/S 740 mmHg 91%
    13:00 -8°C° 0 mm 4 m/S 739 mmHg 91%
    14:00 -7°C° 0 mm 4 m/S 739 mmHg 91%
    15:00 -8°C° 0 mm 4 m/S 739 mmHg 92%
    16:00 -7°C° 0 mm 3 m/S 739 mmHg 94%
    17:00 -8°C° 0 mm 3 m/S 739 mmHg 95%
    18:00 -8°C° 0 mm 4 m/S 739 mmHg 95%
    19:00 -8°C° 0 mm 4 m/S 739 mmHg 95%
    20:00 -7°C° 0 mm 4 m/S 739 mmHg 95%
    21:00 -5°C° 0 mm 4 m/S 739 mmHg 95%
    22:00 -4°C° 0 mm 4 m/S 740 mmHg 95%
    23:00 -3°C° 0 mm 4 m/S 740 mmHg 95%

    28 Januar, Montag

    Zeit Temperatur Niederschläge Wind Luftdruck Luftfeuchtigkeit
    00:00 -3°C° 0 mm 4 m/S 740 mmHg 94%
    01:00 -3°C° 0 mm 4 m/S 740 mmHg 94%
    02:00 -2°C° 0 mm 4 m/S 740 mmHg 94%
    03:00 -2°C° 0 mm 4 m/S 740 mmHg 94%
    04:00 -2°C° 0 mm 4 m/S 740 mmHg 94%
    05:00 -3°C° 0 mm 4 m/S 740 mmHg 94%
    06:00 -3°C° 0 mm 4 m/S 740 mmHg 94%
    07:00 -3°C° 0 mm 4 m/S 740 mmHg 94%
    08:00 -4°C° 0 mm 4 m/S 741 mmHg 94%
    09:00 -3°C° 0 mm 4 m/S 741 mmHg 94%
    10:00 -3°C° 0 mm 4 m/S 741 mmHg 93%
    11:00 -3°C° 0 mm 4 m/S 742 mmHg 93%
    12:00 -2°C° 0 mm 4 m/S 742 mmHg 94%
    13:00 -2°C° 0 mm 4 m/S 742 mmHg 94%
    14:00 -2°C° 0 mm 4 m/S 742 mmHg 94%
    15:00 -2°C° 0 mm 4 m/S 742 mmHg 95%
    16:00 -2°C° 0 mm 4 m/S 742 mmHg 95%
    17:00 -2°C° 0 mm 4 m/S 743 mmHg 95%
    18:00 -1°C° 0 mm 3 m/S 743 mmHg 95%
    19:00 -1°C° 0 mm 3 m/S 743 mmHg 95%
    20:00 -1°C° 0 mm 3 m/S 743 mmHg 95%
    21:00 -1°C° 0 mm 3 m/S 743 mmHg 95%
    22:00 -1°C° 0 mm 3 m/S 744 mmHg 95%
    23:00 -1°C° 0 mm 3 m/S 744 mmHg 96%
    Mehr zeigen